EN

Hourly Weather Tonbridge

Today, 27 October, Tuesday

Time Temperature Precipitation Wind Pressure Humidity
00:00 +7°C° 0 mm 3 mps 747 mmHg 91%
01:00 +7°C° 0 mm 3 mps 746 mmHg 91%
02:00 +7°C° 0 mm 3 mps 746 mmHg 91%
03:00 +7°C° 0 mm 3 mps 746 mmHg 91%
04:00 +7°C° 0 mm 3 mps 746 mmHg 90%
05:00 +7°C° 0 mm 3 mps 746 mmHg 89%
06:00 +7°C° 0 mm 3 mps 746 mmHg 88%
07:00 +8°C° 0.2 mm 3 mps 746 mmHg 89%
08:00 +8°C° 0.2 mm 4 mps 746 mmHg 89%
09:00 +8°C° 0.2 mm 4 mps 745 mmHg 90%
10:00 +9°C° 0.7 mm 6 mps 745 mmHg 90%
11:00 +9°C° 0.7 mm 7 mps 744 mmHg 91%
12:00 +10°C° 0 mm 8 mps 744 mmHg 91%
13:00 +11°C° 0.5 mm 9 mps 743 mmHg 91%
14:00 +12°C° 0.5 mm 9 mps 742 mmHg 92%
15:00 +12°C° 0.5 mm 9 mps 741 mmHg 92%
16:00 +12°C° 0.3 mm 8 mps 742 mmHg 88%
17:00 +11°C° 0.3 mm 7 mps 742 mmHg 85%
18:00 +11°C° 0.3 mm 6 mps 742 mmHg 81%
19:00 +10°C° 0 mm 6 mps 743 mmHg 81%
20:00 +9°C° 0 mm 5 mps 744 mmHg 82%
21:00 +8°C° 0 mm 5 mps 745 mmHg 82%
22:00 +7°C° 0 mm 4 mps 745 mmHg 82%
23:00 +7°C° 0 mm 4 mps 746 mmHg 82%

Tomorrow, 28 October, Wednesday

Time Temperature Precipitation Wind Pressure Humidity
00:00 +7°C° 0 mm 4 mps 746 mmHg 81%
01:00 +7°C° 0 mm 4 mps 746 mmHg 82%
02:00 +7°C° 0 mm 4 mps 746 mmHg 82%
03:00 +7°C° 0 mm 4 mps 746 mmHg 82%
04:00 +7°C° 0.2 mm 5 mps 747 mmHg 83%
05:00 +7°C° 0.2 mm 5 mps 747 mmHg 83%
06:00 +8°C° 0.2 mm 5 mps 747 mmHg 83%
07:00 +8°C° 0.1 mm 5 mps 747 mmHg 81%
08:00 +9°C° 0.1 mm 6 mps 748 mmHg 79%
09:00 +9°C° 0.1 mm 6 mps 748 mmHg 76%
10:00 +10°C° 0.2 mm 7 mps 749 mmHg 74%
11:00 +10°C° 0.2 mm 7 mps 749 mmHg 72%
12:00 +10°C° 0.2 mm 8 mps 749 mmHg 70%
13:00 +10°C° 0.3 mm 7 mps 749 mmHg 73%
14:00 +10°C° 0.3 mm 7 mps 749 mmHg 76%
15:00 +9°C° 0.3 mm 7 mps 749 mmHg 79%
16:00 +9°C° 0.1 mm 6 mps 749 mmHg 80%
17:00 +8°C° 0.1 mm 6 mps 749 mmHg 80%
18:00 +8°C° 0.1 mm 5 mps 750 mmHg 81%
19:00 +8°C° 0 mm 5 mps 750 mmHg 81%
20:00 +8°C° 0 mm 5 mps 751 mmHg 81%
21:00 +7°C° 0 mm 5 mps 751 mmHg 82%
22:00 +7°C° 0 mm 6 mps 752 mmHg 81%
23:00 +7°C° 0 mm 6 mps 752 mmHg 81%

Day after tomorrow, 29 October, Thursday

Time Temperature Precipitation Wind Pressure Humidity
00:00 +7°C° 0 mm 6 mps 753 mmHg 80%
01:00 +7°C° 0 mm 5 mps 753 mmHg 82%
02:00 +7°C° 0 mm 5 mps 754 mmHg 83%
03:00 +7°C° 0 mm 4 mps 754 mmHg 85%
04:00 +7°C° 0 mm 4 mps 755 mmHg 85%
05:00 +7°C° 0 mm 4 mps 755 mmHg 85%
06:00 +7°C° 0 mm 4 mps 756 mmHg 85%
07:00 +8°C° 0 mm 4 mps 756 mmHg 84%
08:00 +10°C° 0 mm 4 mps 757 mmHg 82%
09:00 +11°C° 0 mm 4 mps 757 mmHg 80%
10:00 +10°C° 0.5 mm 5 mps 757 mmHg 84%
11:00 +10°C° 0.5 mm 6 mps 757 mmHg 87%
12:00 +11°C° 0.5 mm 7 mps 757 mmHg 90%
13:00 +11°C° 0.8 mm 7 mps 757 mmHg 90%
14:00 +12°C° 0.8 mm 7 mps 757 mmHg 89%
15:00 +12°C° 0.8 mm 8 mps 757 mmHg 88%
16:00 +12°C° 0 mm 7 mps 757 mmHg 88%
17:00 +12°C° 0 mm 7 mps 757 mmHg 88%
18:00 +12°C° 0 mm 7 mps 757 mmHg 87%
19:00 +12°C° 0 mm 7 mps 757 mmHg 88%
20:00 +12°C° 0 mm 7 mps 757 mmHg 89%
21:00 +12°C° 0 mm 7 mps 758 mmHg 90%
22:00 +12°C° 0 mm 7 mps 757 mmHg 89%
23:00 +12°C° 0 mm 7 mps 757 mmHg 88%

30 October, Friday

Time Temperature Precipitation Wind Pressure Humidity
00:00 +12°C° 0 mm 7 mps 757 mmHg 87%
01:00 +12°C° 0 mm 7 mps 757 mmHg 87%
02:00 +12°C° 0 mm 7 mps 757 mmHg 87%
03:00 +12°C° 0 mm 7 mps 757 mmHg 87%
04:00 +12°C° 0 mm 7 mps 757 mmHg 87%
05:00 +12°C° 0 mm 7 mps 758 mmHg 87%
06:00 +12°C° 0 mm 7 mps 758 mmHg 88%
07:00 +13°C° 0 mm 8 mps 758 mmHg 86%
08:00 +13°C° 0 mm 8 mps 758 mmHg 85%
09:00 +13°C° 0 mm 8 mps 759 mmHg 83%
10:00 +15°C° 0 mm 8 mps 759 mmHg 81%
11:00 +16°C° 0 mm 8 mps 759 mmHg 78%
12:00 +16°C° 0 mm 9 mps 759 mmHg 76%
13:00 +16°C° 0 mm 8 mps 759 mmHg 78%
14:00 +15°C° 0 mm 8 mps 759 mmHg 80%
15:00 +15°C° 0 mm 7 mps 759 mmHg 82%
16:00 +14°C° 0 mm 7 mps 759 mmHg 81%
17:00 +14°C° 0 mm 6 mps 759 mmHg 80%
18:00 +14°C° 0 mm 6 mps 759 mmHg 80%
19:00 +14°C° 0 mm 6 mps 759 mmHg 81%
20:00 +13°C° 0 mm 6 mps 759 mmHg 82%
21:00 +13°C° 0 mm 6 mps 759 mmHg 84%
22:00 +13°C° 0 mm 6 mps 759 mmHg 84%
23:00 +13°C° 0 mm 6 mps 759 mmHg 84%

31 October, Saturday

Time Temperature Precipitation Wind Pressure Humidity
00:00 +13°C° 0 mm 6 mps 759 mmHg 83%
01:00 +13°C° 0 mm 6 mps 758 mmHg 85%
02:00 +13°C° 0 mm 6 mps 758 mmHg 87%
03:00 +13°C° 0 mm 6 mps 758 mmHg 89%
04:00 +12°C° 0 mm 7 mps 758 mmHg 88%
05:00 +12°C° 0 mm 7 mps 757 mmHg 86%
06:00 +12°C° 0 mm 7 mps 757 mmHg 84%
07:00 +14°C° 0 mm 7 mps 757 mmHg 84%
08:00 +14°C° 0 mm 7 mps 757 mmHg 84%
09:00 +15°C° 0 mm 7 mps 757 mmHg 84%
10:00 +15°C° 0 mm 8 mps 756 mmHg 83%
11:00 +15°C° 0 mm 8 mps 756 mmHg 83%
12:00 +15°C° 0 mm 8 mps 756 mmHg 82%
13:00 +15°C° 0.1 mm 8 mps 755 mmHg 83%
14:00 +15°C° 0.1 mm 8 mps 755 mmHg 84%
15:00 +15°C° 0.1 mm 8 mps 754 mmHg 85%
16:00 +15°C° 0.4 mm 9 mps 754 mmHg 85%
17:00 +15°C° 0.4 mm 9 mps 753 mmHg 86%
18:00 +14°C° 0.4 mm 10 mps 753 mmHg 86%
19:00 +14°C° 0.3 mm 10 mps 753 mmHg 87%
20:00 +14°C° 0.3 mm 10 mps 752 mmHg 88%
21:00 +14°C° 0.3 mm 11 mps 752 mmHg 88%
22:00 +14°C° 0.2 mm 10 mps 752 mmHg 88%
23:00 +14°C° 0.2 mm 10 mps 752 mmHg 88%

1 November, Sunday

Time Temperature Precipitation Wind Pressure Humidity
00:00 +16°C° 0.2 mm 10 mps 752 mmHg 88%
01:00 +16°C° 0.7 mm 10 mps 751 mmHg 90%
02:00 +16°C° 0.7 mm 10 mps 750 mmHg 91%
03:00 +14°C° 0.7 mm 10 mps 750 mmHg 92%
04:00 +16°C° 1.1 mm 11 mps 750 mmHg 91%
05:00 +16°C° 1.1 mm 11 mps 749 mmHg 91%
06:00 +15°C° 1.1 mm 12 mps 749 mmHg 90%
07:00 +15°C° 0.5 mm 12 mps 749 mmHg 89%
08:00 +15°C° 0.5 mm 12 mps 749 mmHg 89%
09:00 +17°C° 0.5 mm 12 mps 749 mmHg 89%
10:00 +17°C° 0.1 mm 12 mps 749 mmHg 88%
11:00 +17°C° 0.1 mm 12 mps 749 mmHg 87%
12:00 +17°C° 0.1 mm 12 mps 750 mmHg 87%
13:00 +17°C° 0.2 mm 11 mps 750 mmHg 88%
14:00 +17°C° 0.2 mm 11 mps 750 mmHg 90%
15:00 +16°C° 0.2 mm 10 mps 750 mmHg 92%
16:00 +17°C° 0.2 mm 10 mps 750 mmHg 91%
17:00 +17°C° 0.2 mm 10 mps 750 mmHg 91%
18:00 +17°C° 0.2 mm 10 mps 750 mmHg 90%
19:00 +17°C° 0.3 mm 11 mps 750 mmHg 89%
20:00 +17°C° 0.3 mm 11 mps 750 mmHg 88%
21:00 +17°C° 0.3 mm 11 mps 750 mmHg 87%
22:00 +17°C° 0.1 mm 11 mps 750 mmHg 87%
23:00 +17°C° 0.1 mm 11 mps 750 mmHg 86%
Show more